www.pogodaiklimat.ru

Погода и климат >> Архив погоды >> Россия >> Магаданская область >> Коркодон


ПОГОДА в Коркодоне

  • Прогноз погоды в Коркодоне
  • Монитор погоды в Коркодоне
  • Климат города

АРХИВ ПОГОДЫ в Коркодоне

Время (UTC), дата Ветер
(напр.,м/с)
 
Видим.   Явления Облачность Т
(С)
Тd
(С)
f
(%)
Тe
(С)
Тes
(С)
Комфортность P
(гПа)
Po
(гПа)
Тmin
(С)
Tmax
(С)
R
(мм)
R24
(мм)
S
(см)
09 10.12 З 1 50 км ледяные иглы {снег} ясно -32.0 -34.4 79 -36 -36 опасность
обморожения
1037.0 1022.5 -23.6 0.3
12 10.12 З 2 50 км ледяные иглы {снег} ясно -34.3 -36.5 80 -42 -42 опасность
обморожения
1039.3 1024.6
15 10.12 З 1 50 км ледяные иглы {снег} ясно -32.4 -34.8 79 -37 -37 опасность
обморожения
1040.5 1026.0
18 10.12 З 3 50 км ледяные иглы {снег} ясно -33.5 -35.9 79 -44 -44 опасность
обморожения
1041.9 1027.4
21 10.12 З 2 50 км ледяные иглы {снег} ясно -33.9 -36.2 80 -42 -42 опасность
обморожения
1043.6 1029.1 -34.3 51
00 11.12 СЗ 1 50 км {снег} 5/3 1000 м
[Sc Ac trans]
-34.0 -36.2 80 -39 -39 опасность
обморожения
1044.8 1030.1 -35.0
03 11.12 З 1 50 км 5/3 1000 м
[Sc Ac trans]
-34.8 -37.1 79 -39 -39 опасность
обморожения
1045.7 1031.0
06 11.12 СЗ 1 50 км ясно -35.4 -37.7 79 -40 -40 опасность
обморожения
1046.1 1031.4
09 11.12 СЗ 1 50 км ледяные иглы {снег} 8/0
[Ac trans Ci fib]
-34.3 -36.5 80 -39 -39 опасность
обморожения
1046.5 1031.8 -33.6
12 11.12 З 2 50 км {снег} 10/3 1000 м
[Sc Ac trans Ci fib]
-31.7 -34.1 79 -39 -39 опасность
обморожения
1046.2 1031.7
15 11.12 З 1 50 км 9/4 1000 м
[Sc Ac trans Ci fib]
-31.2 -33.6 79 -35 -35 опасность
обморожения
1045.3 1030.8
18 11.12 З 1 50 км 9/4 1000 м
[Sc Ac trans Ci fib]
-31.0 -33.4 79 -35 -35 опасность
обморожения
1045.6 1031.1
21 11.12 штиль 0 50 км 10/0
[Cs]
-33.3 -35.6 80 -33 -33 опасность
обморожения
1045.6 1031.0 -34.4 51
00 12.12 штиль 0 50 км 3/0
[Ci fib]
-34.8 -37.1 79 -35 -35 опасность
обморожения
1045.1 1030.4 -34.8
03 12.12 штиль 0 50 км 3/0
[Ci fib]
-35.4 -37.1 84 -35 -35 опасность
обморожения
1044.5 1029.8
06 12.12 штиль 0 50 км 6/6 1000 м
[Sc]
-34.2 -36.5 80 -34 -34 опасность
обморожения
1044.4 1029.7
09 12.12 штиль 0 50 км 9/6 1000 м
[Sc Ac trans Ci fib]
-32.6 -34.8 81 -33 -33 опасность
обморожения
1043.3 1028.8 -32.2
12 12.12 СЗ 1 50 км 9/6 1000 м
[Sc Ac trans Ci fib]
-31.7 -34.1 79 -36 -36 опасность
обморожения
1042.2 1027.8
15 12.12 З 1 50 км 8/8 1000 м
[Sc]
-30.7 -33.0 80 -35 -35 опасность
обморожения
1041.4 1027.0
18 12.12 З 2 50 км 10/10 1000 м
[Sc]
-29.5 -32.0 79 -37 -37 опасность
обморожения
1040.5 1026.2
21 12.12 З 2 20 км слабый ливневой снег 10/10 1000 м
[Cb cap]
-28.5 -31.0 79 -36 -36 опасность
обморожения
1039.9 1025.6 -32.6 0.0 51
00 13.12 З 2 50 км в посл. час ливневой снег 10/10 600 м
[Cb cap]
-27.8 -30.3 79 -35 -35 опасность
обморожения
1039.4 1025.2
03 13.12 З 2 50 км 10/10 1000 м
[Sc]
-28.2 -30.7 79 -35 -35 опасность
обморожения
1038.2 1024.0
06 13.12 З 3 50 км 9/9 1000 м
[Sc]
-29.5 -32.0 79 -39 -39 опасность
обморожения
1037.8 1023.6
09 13.12 З 3 50 км 10/10 1000 м
[Sc]
-28.4 -30.8 80 -38 -38 опасность
обморожения
1036.8 1022.6 -27.7 0.2
12 13.12 З 3 50 км 3/3 1000 м
[Sc]
-29.4 -31.8 80 -39 -39 опасность
обморожения
1035.5 1021.3
15 13.12 З 4 50 км 10/3 1000 м
[Sc Cs]
-30.4 -32.8 79 -42 -42 опасность
обморожения
1034.1 1019.8
18 13.12 З 2 50 км 10/3 1000 м
[Sc Cs]
-29.9 -32.4 79 -37 -37 опасность
обморожения
1032.2 1018.0
21 13.12 СЗ 3 20 км слабый снег 10/3 1000 м
[Sc Cs]
-29.2 -31.6 80 -39 -39 опасность
обморожения
1029.9 1015.7 -30.4 0.0 51
00 14.12 СЗ 1 10 км слабый ливневой снег 10/10 1000 м
[Cb cap]
-28.2 -30.7 79 -32 -32 опасность
обморожения
1027.6 1013.5
03 14.12 З 2 10 км слабый ливневой снег 10/10 1000 м
[Cb cap]
-27.8 -30.3 79 -35 -35 опасность
обморожения
1025.2 1011.2
06 14.12 З 2 10 км слабый ливневой снег 10/10 1000 м
[Cb cap]
-27.8 -30.3 79 -35 -35 опасность
обморожения
1022.8 1008.9
09 14.12 СЗ 3 4000 м слабый ливневой снег 10/10 600 м
[Cb cap]
-27.7 -30.1 80 -37 -37 опасность
обморожения
1021.2 1007.3 -27.6 1
12 14.12 СЗ 1 4000 м слабый ливневой снег 10/10 600 м
[Cb cap]
-26.6 -29.7 75 -30 -30 1019.9 1006.0
15 14.12 З 2 4000 м слабый ливневой снег 10/10 600 м
[Cb cap]
-26.6 -29.7 75 -34 -34 опасность
обморожения
1018.5 1004.6
18 14.12 З 2 4000 м слабый ливневой снег 10/10 600 м
[Cb cap]
-26.4 -28.9 79 -33 -33 опасность
обморожения
1017.8 1004.0
21 14.12 З 2 4000 м слабый снег {ливн. осадки} 10/8 1000 м
[Sc Cs]
-27.6 -30.0 80 -35 -35 опасность
обморожения
1017.6 1003.8 -27.7 1 51
00 15.12 З 2 50 км {ливн. осадки, снег} 8/5 1000 м
[Sc Ci fib]
-27.6 -30.0 80 -35 -35 опасность
обморожения
1017.6 1003.8
03 15.12 З 1 50 км 10/0
[Cs]
-28.8 -30.6 84 -33 -33 опасность
обморожения
1018.0 1004.1
06 15.12 В 1 50 км 10/0
[Cs]
-30.8 -33.2 79 -35 -35 опасность
обморожения
1019.0 1004.9
09 15.12 В 1 50 км ледяные иглы {снег} 10/0
[Ac trans Cs]
-32.4 -34.8 79 -37 -37 опасность
обморожения
1019.9 1005.6 -27.6 0.2
12 15.12 В 2 50 км ледяные иглы {снег} 10/0
[Ac trans Ci fib]
-32.7 -35.1 79 -41 -41 опасность
обморожения
1020.8 1006.5
15 15.12 В 2 50 км ледяные иглы {снег} 10/0
[Ac trans Cs]
-32.3 -34.6 80 -40 -40 опасность
обморожения
1020.1 1005.8
18 15.12 В 2 10 км слабый снег 10/3 1000 м
[Sc Ac trans Cs]
-31.8 -34.1 80 -40 -40 опасность
обморожения
1019.6 1005.5
21 15.12 СВ 1 4000 м слабый снег 10/4 1000 м
[Sc Cs]
-31.2 -33.6 79 -35 -35 опасность
обморожения
1018.6 1004.5 -32.7 0.3 53
00 16.12 В 1 4000 м слабый снег 10/4 1000 м
[Sc Cs]
-30.1 -32.6 79 -34 -34 опасность
обморожения
1018.1 1004.0
03 16.12 В 1 4000 м слабый снег 10/4 1000 м
[Sc Ac trans Cs]
-29.0 -31.4 80 -33 -33 опасность
обморожения
1016.8 1002.9
06 16.12 В 1 10 км слабый снег 10/4 1000 м
[Sc Cs]
-28.4 -30.8 80 -32 -32 опасность
обморожения
1017.1 1003.2
09 16.12 В 1 4000 м слабый ливневой снег 10/10 1000 м
[Cb cap]
-27.8 -30.3 79 -32 -32 опасность
обморожения
1016.8 1003.0 -27.8 2
12 16.12 В 2 4000 м слабый ливневой снег 10/10 1000 м
[Cb cap]
-27.2 -29.6 80 -34 -34 опасность
обморожения
1017.7 1003.9
15 16.12 В 2 4000 м слабый ливневой снег 10/10 1000 м
[Cb cap]
-27.1 -29.5 80 -34 -34 опасность
обморожения
1017.9 1004.1
18 16.12 В 2 4000 м слабый ливневой снег 8/8 1000 м
[Cb cap]
-28.2 -30.7 79 -35 -35 опасность
обморожения
1018.5 1004.5
21 16.12 В 2 20 км слабый ливневой снег 10/10 1000 м
[Cb cap]
-27.4 -29.8 80 -34 -34 опасность
обморожения
1019.2 1005.3 -28.2 0.7 54
00 17.12 В 2 20 км слабый ливневой снег 10/10 1000 м
[Cb cap]
-27.0 -29.5 79 -34 -34 опасность
обморожения
1019.8 1005.9
03 17.12 В 2 50 км {ливн. осадки} 10/5 1000 м
[Sc Ac trans Cs]
-26.6 -29.0 80 -34 -34 опасность
обморожения
1019.8 1005.9
06 17.12 В 1 10 км слабый снег {ливн. осадки} 10/4 1000 м
[Sc Cs]
-28.2 -30.7 79 -32 -32 опасность
обморожения
1020.2 1006.2

 

Местоположение метеостанции Коркодон (Магаданская область, Россия): широта 64.75 долгота 153.90 высота над уровнем моря 99 м.

В архиве по умолчанию представлена погода в Коркодоне за последнюю неделю. Архивные данные за месяц целиком и за предыдущие месяцы, начиная с января 2011 года, Вы можете получить, выбрав интересующий диапазон дат из раскрывающегося списка и нажав кнопку "Ввод!".

Внимание! Время в таблицах - всемирное. Для получения местного времени необходимо прибавить поправку, которая в Коркодоне равна 11 ч.

Смотрите также архив погоды в соседних городах и на ближайших метеорологических станциях:

Погода в Балыгычане (Магаданская область, Россия) (94 км)
Погода в Зырянке (Якутия, Россия) (177 км)
Погода в Сеймчане (Магаданская область, Россия) (217 км)
Погода в Омсукчане (Магаданская область, Россия) (265 км)
Погода в Среднекане (Магаданская область, Россия) (268 км)
Погода в Совхозе Эльген (Магаданская область, Россия) (271 км)
Погода в Лабазной (Магаданская область, Россия) (276 км)
Погода в Среднеколымске (Якутия, Россия) (300 км)
Погода в Омолоне (Чукотка, Россия) (315 км)
Погода в Ягодной (Магаданская область, Россия) (327 км)

Пояснения к столбцам:

Ветер - указаны скорость ветра в м/с - средняя за 10 мин, порывы в срок и между сроками (в фигурных скобках) и направление, откуда дует ветер: С - северный, СВ - северо-восточный, В - восточный, ЮВ - юго-восточный, Ю - южный, ЮЗ - юго-западный, З - западный, СЗ - северо-западный.
Видимость - горизонтальная дальность видимости в метрах или километрах. При видимости от 1 до 10 км при отсутствии осадков обычно наблюдается дымка, при ухудшении видимости до 1 км и менее - туман. В сухую погоду видимость может ухудшаться дымом, пылью или мглою.
Явления - указаны атмосферные явления, наблюдавшиеся в срок или в последний час перед сроком; фигурными скобками обозначены явления, наблюдавшиеся между сроками (за 1-3 часа до срока); квадратными скобками обозначены град или гололедные отложения с указанием их диаметра в мм.
Облачность - указаны через наклонную черту общая и нижняя облачность в баллах и высота нижней границы облаков в метрах; квадратными скобками обозначены формы облаков: Ci - перистые, Cs - перисто-слоистые, Cc - перисто-кучевые, Ac - высококучевые, As - высокослоистые, Sc - слоисто-кучевые, Ns - слоисто-дождевые, Cu - кучевые, Cb - кучево-дождевые. Подробнее классификацию облаков см. в Атласе облаков (PDF).
T - Температура воздуха - температура, измеренная на высоте 2 м над землей.
Td - Температура точки росы - температура, при понижении до которой содержащийся в воздухе водяной пар достигнет насыщения.
f - Относительная влажность воздуха - влажноcть воздуха, измеренная на высоте 2 м над землей.
Te - Эффективная температура - температура, которую ощущает одетый по сезону человек в тени. Характеристика душности погоды. При расчете учитывается влияние влажности воздуха и скорости ветра на теплоощущения человека.
Tes - Эффективная температура на солнце - температура, которую ощущает человек, с поправкой на солнечный нагрев. Характеристика знойности погоды. Зависит от высоты солнца над горизонтом, облачности и скорости ветра. Ночью, в пасмурную погоду, а также при ветре 12 м/с и более поправка равна нулю.
P - Атмосферное давление - приведенное к уровню моря атмосферное давление.
Po - Атмосферное давление - измеренное на уровне метеостанции атмосферное давление.
Tmin - Минимальная температура - минимум температуры воздуха на высоте 2 м над землей.
Tmax - Максимальная температура - максимум температуры воздуха на высоте 2 м над землей.
R - Количество осадков - Количество выпавших осадков за период времени, мм. При наведении курсора мыши на число - период времени, за который выпало указанное количество осадков.
R24 - Количество осадков - Количество выпавших осадков за 24 часа, мм.
S - Снежный покров - Высота снежного покрова, см. При наведении курсора мыши на число - состояние снежного покрова и степень покрытия местности в баллах.